TimeCST,TemperatureF,Dew PointF,Humidity,Sea Level PressureIn,VisibilityMPH,Wind Direction,Wind SpeedMPH,Gust SpeedMPH,PrecipitationIn,Events,Conditions,WindDirDegrees,DateUTC
12:53 AM,62.1,53.1,72,30.09,10.0,SSE,5.8,-,N/A,,Clear,150,2011-11-08 06:53:00
1:53 AM,55.0,51.1,86,30.09,10.0,SSE,4.6,-,N/A,,Clear,160,2011-11-08 07:53:00
2:53 AM,57.2,51.8,82,30.06,10.0,ESE,5.8,-,N/A,,Clear,110,2011-11-08 08:53:00
3:53 AM,55.9,53.1,90,30.09,10.0,SE,5.8,-,N/A,,Clear,130,2011-11-08 09:53:00
4:53 AM,59.0,55.0,87,30.09,10.0,SE,5.8,-,N/A,,Partly Cloudy,140,2011-11-08 10:53:00
5:38 AM,60.8,57.2,88,30.07,10.0,South,6.9,-,N/A,,Mostly Cloudy,170,2011-11-08 11:38:00
5:53 AM,60.1,57.0,90,30.09,10.0,South,6.9,-,N/A,,Overcast,170,2011-11-08 11:53:00
6:29 AM,60.8,57.2,88,30.08,10.0,SSE,6.9,-,N/A,,Overcast,160,2011-11-08 12:29:00
6:53 AM,60.1,57.9,93,30.10,10.0,SE,5.8,-,N/A,,Mostly Cloudy,140,2011-11-08 12:53:00
7:53 AM,63.0,60.1,90,30.11,10.0,SE,11.5,-,N/A,,Overcast,140,2011-11-08 13:53:00
8:19 AM,64.4,60.8,88,30.09,10.0,SE,16.1,21.9,N/A,,Overcast,140,2011-11-08 14:19:00
8:29 AM,64.4,60.8,88,30.09,10.0,SSE,15.0,23.0,N/A,,Mostly Cloudy,150,2011-11-08 14:29:00
8:53 AM,66.0,61.0,84,30.11,10.0,SSE,13.8,20.7,N/A,,Scattered Clouds,160,2011-11-08 14:53:00
9:53 AM,69.1,61.0,75,30.09,10.0,South,16.1,-,N/A,,Overcast,170,2011-11-08 15:53:00
10:53 AM,73.9,61.0,64,30.06,10.0,South,18.4,-,N/A,,Partly Cloudy,170,2011-11-08 16:53:00
11:53 AM,78.1,62.1,58,30.01,10.0,South,19.6,27.6,N/A,,Clear,170,2011-11-08 17:53:00
12:53 PM,80.1,61.0,52,29.99,10.0,South,21.9,29.9,N/A,,Partly Cloudy,180,2011-11-08 18:53:00
1:53 PM,80.1,61.0,52,29.98,10.0,SSW,15.0,27.6,N/A,,Scattered Clouds,200,2011-11-08 19:53:00
2:53 PM,80.1,60.1,50,29.96,10.0,SSW,18.4,26.5,N/A,,Partly Cloudy,200,2011-11-08 20:53:00
3:53 PM,78.1,61.0,56,29.94,10.0,South,13.8,20.7,N/A,,Mostly Cloudy,170,2011-11-08 21:53:00
4:53 PM,72.0,64.0,76,29.93,10.0,SSE,12.7,20.7,N/A,,Scattered Clouds,160,2011-11-08 22:53:00
5:53 PM,71.1,63.0,75,29.95,10.0,SSE,8.1,-,N/A,,Mostly Cloudy,160,2011-11-08 23:53:00
6:53 PM,71.1,64.0,78,29.97,10.0,South,9.2,-,N/A,,Overcast,190,2011-11-09 00:53:00
7:53 PM,72.0,64.0,76,29.96,10.0,SSE,10.4,-,0.00,,Partly Cloudy,160,2011-11-09 01:53:00
8:53 PM,70.0,64.0,81,29.96,10.0,South,10.4,-,0.00,Rain,Light Rain,180,2011-11-09 02:53:00
9:30 PM,68.0,64.4,88,29.94,9.0,South,9.2,-,0.04,Rain-Thunderstorm,Light Rain,170,2011-11-09 03:30:00
9:53 PM,68.0,64.9,90,29.98,10.0,South,10.4,-,0.07,Rain,Light Rain,190,2011-11-09 03:53:00
10:03 PM,68.0,64.4,88,29.97,6.0,South,10.4,-,0.03,Rain-Thunderstorm,Rain,190,2011-11-09 04:03:00
10:24 PM,66.2,64.4,94,29.97,2.5,South,13.8,-,0.13,Rain,Heavy Rain,180,2011-11-09 04:24:00
10:36 PM,66.2,66.2,100,29.98,3.0,South,13.8,-,0.22,Rain-Thunderstorm,Heavy Rain,180,2011-11-09 04:36:00
10:45 PM,66.2,64.4,94,29.94,3.0,South,26.5,38.0,0.27,Rain-Thunderstorm,Heavy Rain,170,2011-11-09 04:45:00
10:53 PM,68.0,64.9,90,29.97,4.0,South,23.0,38.0,0.30,Rain-Thunderstorm,Rain,180,2011-11-09 04:53:00
10:57 PM,68.0,64.4,88,29.95,4.0,South,21.9,33.4,0.01,Rain,Rain,180,2011-11-09 04:57:00
11:53 PM,66.0,63.0,90,29.96,8.0,South,23.0,39.1,0.10,Rain,Light Rain,190,2011-11-09 05:53:00